Theta_e
310 310 310 311 310 311 311 311 312 312 312 313 313 313 313 312 312 312 312 310 309 305 310 313 311 313 317 316 316 317 320 322 322 323 325 328 334 335 335 332 331 347 352 350 348
308 310 310 310 311 311 311 310 311 311 311 312 312 313 313 312 312 312 313 312 310 312 313 313 312 311 314 315 314 315 318 321 320 322 324 326 332 330 334 329 331 345 353 353 350
307 308 308 308 310 310 310 310 310 311 311 311 312 312 312 312 314 315 313 314 313 311 312 312 312 311 310 313 315 315 317 319 320 322 324 329 333 333 329 327 327 328 337 353 349
308 309 308 308 308 308 309 309 310 310 310 310 311 311 311 312 318 309 312 313 314 312 311 311 310 308 310 312 314 315 316 318 320 322 324 329 328 334 331 327 326 328 330 349 349
309 309 309 308 308 307 307 308 308 309 309 310 310 310 311 314 315 313 314 317 315 316 312 310 309 308 308 313 313 315 316 317 318 320 325 327 328 328 330 327 326 327 328 332 346
311 310 309 309 309 308 307 306 307 308 308 309 309 310 312 316 313 315 315 317 318 316 313 311 310 310 310 311 314 314 314 316 317 319 326 328 328 327 327 326 325 326 327 329 340
311 311 310 309 308 308 307 306 305 306 307 308 309 311 312 312 313 316 316 315 316 315 312 312 311 310 311 310 311 314 314 316 317 318 327 327 329 329 327 325 324 326 327 329 331
308 308 309 309 309 308 308 305 305 304 306 309 310 311 312 311 311 311 310 313 316 315 313 311 311 311 311 311 313 313 313 315 316 319 327 327 330 328 326 326 326 326 327 329 329
305 307 308 308 309 309 308 305 305 307 307 309 310 311 312 312 313 312 311 316 318 316 315 315 311 311 312 311 312 312 314 315 316 325 327 328 330 327 325 326 329 329 327 328 328
305 304 303 304 305 306 305 304 305 305 307 309 310 313 312 314 313 315 316 316 318 315 318 318 313 311 311 311 314 313 313 315 316 325 328 328 328 328 328 328 328 328 328 328 328
304 303 303 303 302 303 304 305 304 310 309 312 311 313 312 312 313 314 317 317 319 316 320 315 314 312 311 311 313 314 313 314 322 326 328 329 329 326 327 328 328 328 328 328 326
302 303 302 302 302 302 304 305 305 306 312 310 312 313 312 313 316 317 319 320 320 317 318 315 314 312 312 312 313 314 314 313 324 325 327 327 328 327 328 331 331 329 328 327 324
300 300 300 300 300 301 305 306 308 310 313 312 310 313 314 315 317 317 319 320 319 317 315 317 313 314 313 312 313 313 314 317 323 326 327 329 330 327 328 329 329 329 329 328 326
301 301 301 301 302 304 303 305 305 309 313 313 313 311 311 314 316 317 317 321 317 317 315 319 315 314 314 313 313 314 315 321 324 324 333 329 330 329 328 328 327 327 329 328 325
302 302 302 303 303 303 302 302 306 309 312 306 313 312 311 315 316 318 317 320 317 315 316 319 316 314 314 314 314 314 315 316 320 319 326 330 330 325 328 333 324 325 328 328 323
302 303 303 304 303 304 304 305 307 311 309 306 314 313 313 314 316 319 318 317 316 316 318 319 316 314 313 313 314 314 314 315 319 320 322 321 327 325 323 331 321 321 325 328 326
303 303 304 304 305 304 305 305 312 310 306 314 314 313 315 317 317 319 321 316 316 318 321 320 316 315 313 312 313 313 313 315 322 325 328 321 321 322 320 320 320 319 323 323 325
303 304 306 306 307 306 306 310 311 306 306 308 312 314 317 318 318 319 322 316 315 316 318 319 317 314 314 313 312 312 312 319 321 323 322 322 322 319 320 321 320 319 319 319 321
304 305 307 310 310 307 308 312 307 307 307 308 311 316 318 321 318 318 322 318 316 316 317 317 316 316 315 314 313 313 313 314 318 323 320 317 321 324 321 321 320 320 320 323 323
305 307 310 310 309 308 310 309 309 309 310 310 313 315 316 313 315 319 323 320 317 317 316 318 318 317 316 314 313 313 315 315 327 332 328 326 325 324 323 321 321 325 325 324 326
306 308 312 310 308 311 313 310 311 311 311 315 314 315 315 315 315 319 326 320 317 316 315 316 319 317 316 315 313 313 314 317 327 324 332 336 334 327 326 322 323 326 326 323 326
306 311 310 310 311 307 311 312 311 312 313 316 314 314 315 312 318 323 326 321 317 315 315 315 324 322 320 318 315 314 315 316 322 325 332 334 334 325 326 326 325 325 323 322 322
307 309 312 310 312 311 311 312 313 315 318 317 317 315 315 311 324 326 326 322 317 314 315 319 323 325 322 320 320 316 318 318 319 326 333 335 333 327 328 327 325 324 324 322 322
309 313 310 311 311 311 311 314 314 314 321 320 320 319 316 320 319 323 327 326 316 315 329 324 324 325 321 323 319 320 321 318 322 322 328 333 332 331 331 328 326 324 322 322 322
311 311 309 310 310 311 312 312 312 315 317 321 322 320 321 324 322 323 325 325 316 326 319 323 326 330 325 327 326 319 319 320 322 326 327 334 334 332 330 330 326 326 324 323 323
308 310 309 309 309 311 312 310 312 312 315 322 319 317 319 323 321 322 324 327 320 318 319 324 329 329 330 326 326 327 321 326 328 331 331 332 335 333 329 328 328 326 326 323 321
306 307 310 309 310 311 311 309 310 316 318 318 319 319 318 317 316 316 317 318 320 318 321 327 327 328 330 326 328 327 328 328 329 328 328 330 331 330 328 328 326 325 326 321 320
Wind_Speed
17 17 17 17 18 18 18 19 18 18 18 18 17 17 18 19 19 18 17 20 16 24 8 4 17 18 19 7 8 5 8 12 15 16 16 15 4 4 9 10 11 7 12 13 24
18 18 17 17 19 19 19 19 20 19 19 18 18 17 18 20 22 28 35 33 26 16 13 13 7 15 7 8 6 7 7 17 8 12 13 14 5 6 5 10 9 20 20 24 27
19 18 19 17 18 19 20 20 20 20 19 19 18 17 17 18 8 9 7 20 33 22 18 16 19 7 10 8 9 9 17 8 11 20 9 8 6 5 7 5 5 8 18 20 22
20 19 20 20 19 21 20 20 21 20 20 19 19 17 13 10 6 7 8 15 27 29 21 11 14 9 10 17 13 12 17 14 15 17 7 5 9 9 4 3 10 11 13 3 20
21 22 21 21 22 22 21 20 21 22 21 20 18 16 10 9 13 20 22 15 19 29 23 14 12 11 15 13 12 18 14 15 19 17 2 4 6 7 10 7 10 13 17 9 12
26 24 24 24 24 24 22 21 21 22 22 21 19 15 9 20 27 35 32 14 17 31 25 19 7 11 7 13 18 7 12 13 17 20 4 2 6 7 13 10 7 9 12 12 6
26 27 27 26 25 24 23 23 24 26 24 22 20 17 16 22 15 18 26 22 17 32 18 29 27 9 13 10 12 11 10 14 19 20 3 5 6 7 15 13 14 8 10 11 13
28 28 28 28 27 26 26 27 31 29 27 24 19 18 17 28 38 47 45 39 27 34 33 27 27 13 15 8 9 15 9 14 19 13 4 8 15 11 18 15 11 8 7 11 11
28 28 28 29 28 28 27 32 37 33 28 22 19 12 13 17 21 51 40 20 20 27 33 23 18 14 14 13 11 13 17 17 12 9 6 8 4 12 18 17 15 8 9 9 13
27 28 28 27 26 26 28 34 44 36 15 15 19 9 11 16 19 17 32 29 14 16 18 13 7 11 14 12 19 13 12 14 17 10 3 6 8 11 18 20 20 8 10 10 11
27 28 28 27 27 27 27 17 8 3 6 9 13 16 21 31 31 19 17 23 20 13 15 12 12 21 21 17 9 8 15 13 9 6 6 10 8 10 17 17 20 8 9 9 11
30 29 28 29 29 28 24 6 14 7 13 18 28 26 40 30 16 20 27 16 17 18 15 10 22 15 15 16 17 19 16 19 7 10 10 10 16 16 16 15 21 12 9 9 8
32 33 31 31 31 29 18 23 20 15 8 19 25 30 30 20 26 28 17 23 22 20 22 21 13 19 21 19 20 23 21 13 7 11 18 7 7 8 14 25 22 16 10 13 9
34 33 32 31 19 11 17 17 26 14 5 10 17 21 28 22 13 30 26 23 15 26 23 17 14 23 21 24 22 23 21 16 15 12 11 8 5 7 13 23 24 17 14 13 8
36 35 33 24 20 18 28 32 23 10 6 9 7 12 11 26 6 18 32 26 23 21 20 18 21 23 24 21 24 20 13 12 15 9 5 20 9 15 22 25 23 17 13 13 11
39 38 37 29 20 26 27 21 17 3 9 6 8 20 9 30 13 14 19 22 21 20 22 16 14 19 16 19 20 16 14 18 6 13 13 19 19 17 14 28 21 13 14 16 17
44 46 41 29 9 8 17 8 4 5 10 5 10 14 21 16 25 13 23 27 23 20 15 25 23 23 17 18 18 18 12 9 5 1 12 12 16 15 10 24 25 21 16 12 16
50 38 25 17 16 13 11 2 8 10 14 11 16 16 8 11 28 18 18 21 22 18 12 19 18 24 22 10 22 20 14 6 8 9 15 16 12 21 21 14 16 18 15 10 10
42 20 12 11 19 18 3 3 4 7 10 11 17 5 7 7 11 21 24 22 25 22 9 14 16 23 24 12 20 19 15 8 3 5 2 5 7 1 12 14 15 18 13 10 9
28 10 4 12 10 14 2 5 10 17 21 19 7 2 7 12 11 15 21 22 25 23 12 3 12 16 23 21 16 15 9 8 4 2 5 6 4 4 12 17 17 16 14 11 10
11 5 2 7 7 2 3 6 15 17 16 4 4 1 3 3 11 8 14 11 22 21 17 5 3 11 18 13 10 11 9 4 8 7 1 3 7 4 4 22 16 14 11 10 13
7 4 4 6 2 1 3 5 8 16 15 13 5 8 6 5 7 10 16 11 23 20 23 9 3 1 5 3 10 9 9 12 7 7 6 3 6 9 6 19 18 14 10 9 10
5 3 4 4 4 5 5 10 10 10 12 5 5 5 2 4 5 11 22 18 27 20 10 7 4 3 1 9 8 16 8 8 6 8 4 4 5 6 11 12 15 13 10 10 11
3 4 3 2 2 7 7 7 15 13 11 6 4 4 4 6 3 1 2 6 24 15 10 6 3 5 10 5 5 5 6 6 6 5 13 10 13 10 8 6 12 12 12 11 14
3 4 3 6 8 15 10 8 15 10 9 9 2 4 5 2 3 2 2 9 19 13 5 4 4 4 3 4 7 6 6 6 5 4 5 12 11 5 5 10 9 6 9 13 12
4 4 3 8 12 13 6 6 8 10 4 8 7 10 7 4 3 1 3 6 5 6 5 4 3 5 4 10 13 6 8 10 15 16 11 12 11 8 2 13 10 11 5 5 13
7 10 4 7 10 9 11 8 8 15 8 8 12 4 9 7 7 9 9 13 6 8 4 5 4 2 3 9 6 5 10 5 10 13 15 8 8 11 13 14 8 3 3 7 13
Wind_Direction
331 329 328 324 322 320 317 314 308 305 305 305 307 308 309 312 300 282 247 234 238 242 275 310 203 221 234 252 270 264 237 239 240 248 258 281 345 44 347 337 348 317 128 99 126
333 331 329 325 321 319 318 316 313 308 305 301 302 303 306 313 300 268 256 259 235 221 240 240 237 200 220 208 240 206 234 233 244 262 265 299 280 247 4 13 309 4 94 109 115
337 334 330 317 314 316 312 311 310 309 307 302 300 301 306 321 290 249 328 246 231 212 227 225 244 212 207 228 226 244 236 247 228 255 277 340 317 224 116 322 351 11 311 141 129
332 331 331 328 323 312 303 304 304 303 302 300 299 297 297 314 255 159 43 8 222 208 210 249 232 240 199 213 221 239 242 242 259 265 261 336 322 294 190 196 337 8 12 210 158
324 322 322 322 321 319 313 306 303 300 294 294 292 292 298 232 239 233 291 304 189 188 203 216 226 221 224 205 224 231 233 241 255 265 305 13 318 319 283 63 335 354 343 25 174
318 316 313 314 314 314 313 307 300 296 291 287 285 284 250 253 259 258 266 239 186 189 203 217 228 228 227 227 210 225 237 240 249 256 34 168 301 14 307 334 321 327 326 352 221
320 316 313 311 312 308 309 311 310 296 285 280 280 270 250 241 258 264 269 278 225 187 199 213 226 235 232 226 237 220 230 240 248 251 136 65 305 264 298 300 288 299 317 326 346
316 314 311 308 305 301 301 306 308 300 284 275 274 268 260 260 259 269 264 271 266 202 196 207 221 248 257 254 232 233 233 233 235 237 164 127 258 279 287 294 276 275 302 304 314
320 317 314 310 303 299 296 306 303 292 279 270 268 239 270 267 226 238 240 236 252 207 195 199 201 229 259 246 235 227 225 231 230 191 167 150 206 255 267 284 286 303 281 285 297
323 321 319 318 317 310 309 312 306 289 267 248 239 249 250 239 233 231 235 224 227 216 185 187 192 218 238 221 216 214 222 220 225 198 115 257 236 237 258 259 275 260 263 269 282
325 324 324 321 318 316 312 324 317 143 198 226 198 229 286 224 276 223 193 201 232 236 185 177 197 210 218 228 236 246 238 221 213 168 172 238 256 251 257 265 255 257 242 259 271
326 323 320 320 316 313 302 255 237 298 288 235 239 231 250 266 289 288 188 187 210 214 193 182 213 214 211 221 227 244 242 236 188 182 186 213 234 242 259 252 261 243 227 250 268
324 324 322 319 315 302 256 240 272 295 275 264 234 236 236 228 242 254 209 189 196 204 212 202 198 213 206 215 216 235 241 217 187 193 207 198 262 270 273 249 241 231 225 230 232
322 321 320 322 316 316 302 288 323 317 283 262 228 242 230 220 265 230 241 183 192 206 212 204 206 206 214 214 214 228 233 201 208 222 233 193 255 234 251 253 238 216 211 221 222
323 320 316 313 288 278 273 290 292 284 291 284 210 204 193 183 208 220 208 190 197 186 210 195 200 202 216 208 217 232 234 221 201 225 178 224 242 235 220 228 221 209 206 211 213
325 318 313 301 270 262 274 280 291 236 250 300 46 336 183 190 224 177 195 198 208 197 201 208 206 207 215 219 215 223 227 227 168 228 232 227 205 245 230 213 214 201 207 208 219
326 321 308 289 251 294 269 261 239 223 311 63 1 347 330 193 219 191 191 182 193 196 193 210 202 220 201 209 217 215 211 223 188 115 235 268 219 233 226 218 198 193 199 197 200
331 328 323 282 286 259 259 188 216 248 250 343 341 326 295 184 212 227 194 184 202 203 192 193 214 210 217 188 211 222 207 159 164 195 235 242 237 234 234 210 175 178 181 171 187
336 321 312 337 358 191 80 207 263 304 304 331 326 322 337 311 245 207 206 192 199 201 198 188 206 217 217 188 198 221 223 192 152 355 233 215 231 44 205 159 167 179 180 138 158
326 292 278 3 2 131 165 253 260 265 308 311 293 303 4 312 320 197 194 195 199 210 220 280 197 210 213 187 202 207 178 183 34 66 319 305 186 144 138 158 160 146 139 134 116
313 317 221 351 69 180 248 250 297 289 286 319 346 200 268 287 272 254 195 188 200 205 215 205 203 215 196 195 182 201 205 140 120 160 264 352 291 324 225 156 135 125 125 122 115
312 317 348 7 3 337 278 264 299 290 296 284 181 190 221 224 262 234 178 206 194 207 207 202 319 209 215 17 186 199 186 193 165 168 123 146 279 318 40 127 126 119 117 113 117
306 278 87 49 357 315 272 291 268 273 278 264 177 143 131 245 254 195 203 210 184 192 181 186 186 72 265 285 283 212 218 191 175 107 133 180 245 308 49 100 126 123 105 99 97
295 319 348 293 329 320 309 316 338 317 29 12 127 167 178 217 214 280 288 279 185 176 102 91 98 153 191 225 195 167 229 186 161 120 161 176 190 147 60 112 83 101 102 93 86
327 4 29 310 327 324 342 316 334 342 332 2 106 344 296 118 30 7 344 287 179 124 83 85 83 15 174 14 342 189 221 249 194 81 105 143 106 85 72 59 56 1 95 102 94
353 332 305 297 313 328 349 331 319 328 302 21 24 353 348 59 46 169 345 254 128 110 83 38 29 49 13 25 19 334 190 59 95 94 77 97 96 101 204 68 56 75 17 122 118
328 296 285 302 330 345 342 333 308 330 16 11 3 44 8 335 293 267 267 295 266 138 102 80 114 76 38 359 351 8 349 351 96 102 129 131 150 158 133 133 139 129 12 107 101